Home   Weather   Laredo   Past weeks

Flag for USA Past Weather in Laredo, Texas, USA — Yesterday and Last 2 Weeks

Now
68 °F

Thundershowers. Low clouds.


Feels Like: 68 °F
Forecast: 64 / 73 °F
Wind: 10 mph from East

Location: Laredo International Airport

Current Time: Dec 3, 2016 at 1:00:31 am

Latest Report: Dec 2, 2016 at 10:56 pm


Visibility: 7 mi

Pressure: 29.88 "Hg

Humidity: 96%

Dew Point: 67 °F

Location of LaredoLocation

Past Weather in Laredo — Graph

°F

Laredo Temperature Yesterday

Maximum temperature yesterday: 77 °F (at 3:56 pm)
Minimum temperature yesterday: 65 °F (at 12:56 am)
Average temperature yesterday: 70 °F

High & Low Weather Summary for the Past Weeks

 TemperatureHumidityPressure
High86 °F (Nov 28, 2:56 pm)97% (Nov 25, 7:56 am)30.63 "Hg (Nov 25, 7:56 am)
Low43 °F (Nov 20, 4:56 am)13% (Nov 30, 12:56 pm)29.54 "Hg (Nov 29, 1:56 am)
Average68 °F63%30.06 "Hg
* Reported Nov 17 10:56 pm — Dec 2 10:56 pm, Laredo, Weather by CustomWeather, © 2016

Note: Actual official high and low records may vary slightly from our data, if they occured in-between our weather recording intervals... More about our weather records

Advertising

Laredo Weather History for the Previous 24 Hours

Scroll right to see more
 ConditionsComfort  
Time TempWeatherWind HumidityBarometerVisibility
10:56 pm
Fri, Dec 2
68 °FThundershowers. Low clouds.10 mph96%29.88 "Hg7 mi
9:56 pm69 °FLow clouds.15 mph93%29.88 "Hg10 mi
8:56 pm70 °FLow clouds.15 mph93%29.88 "Hg10 mi
7:56 pm72 °FStrong thunderstorms. Fog.15 mph91%29.89 "Hg4 mi
6:56 pm73 °FOvercast.12 mph88%29.88 "Hg10 mi
5:56 pm73 °FOvercast.12 mph88%29.87 "Hg10 mi
4:56 pm73 °FMostly cloudy.10 mph84%29.87 "Hg10 mi
3:56 pm77 °FMore clouds than sun.7 mph74%29.86 "Hg10 mi
2:56 pm76 °FMostly cloudy.8 mph74%29.86 "Hg10 mi
1:56 pm76 °FMore clouds than sun.10 mph74%29.88 "Hg10 mi
12:56 pm74 °FMostly cloudy.10 mph76%29.92 "Hg10 mi
11:56 am75 °FMostly cloudy.9 mph74%29.96 "Hg10 mi
10:56 am73 °FOvercast.10 mph79%29.97 "Hg10 mi
9:56 am70 °FMostly cloudy.14 mph84%29.98 "Hg10 mi
8:56 am67 °FOvercast.12 mph90%29.97 "Hg10 mi
7:56 am66 °FOvercast.8 mph87%29.96 "Hg10 mi
6:56 am65 °FOvercast.10 mph85%29.95 "Hg10 mi
5:56 am66 °FOvercast.7 mph84%29.94 "Hg10 mi
4:56 am66 °FMostly cloudy.12 mph84%29.94 "Hg10 mi
3:56 am66 °FMostly cloudy.8 mph81%29.96 "Hg10 mi
2:56 am66 °FOvercast.6 mph81%29.96 "Hg10 mi
1:56 am66 °FMostly cloudy.6 mph78%29.97 "Hg10 mi
Weather by CustomWeather, © 2016

See weather overviewHow to use our weather pages